OK1PHU-5 Weather Reports


time (UTC)temp
C
wind
direction
speed
KPH
gust
KPH
rain 1hr
cm
rain 24hr
cm
rain mn
cm
humidity
%
barometer
mb
20260505011253 -17 0 0.0 0.0 0.00 0.00 0.00 71 1008.4
20260505010253 -17 0 0.0 0.0 0.00 0.00 0.00 70 1008.5
20260505004250 -17 0 0.0 0.0 0.00 0.00 0.00 72 1008.4
20260505003250 -17 0 0.0 0.0 0.00 0.00 0.00 71 1008.2
20260505002250 -17 0 0.0 0.0 0.00 0.00 0.00 70 1008.3
20260505001250 -17 0 0.0 0.0 0.00 0.00 0.00 70 1008.4
20260505000250 -17 0 0.0 0.0 0.00 0.00 0.00 70 1008.5
20260504234247 -17 0 0.0 0.0 0.00 0.00 0.00 69 1008.7
20260504233247 -17 0 0.0 0.0 0.00 0.00 0.00 69 1008.7
20260504232247 -17 0 0.0 0.0 0.00 0.00 0.00 69 1008.7
20260504231247 -17 0 0.0 0.0 0.00 0.00 0.00 69 1008.9
20260504230246 -17 0 0.0 0.0 0.00 0.00 0.00 69 1008.9
20260504225243 -17 0 0.0 0.0 0.00 0.00 0.00 69 1009.0
20260504224243 -17 0 0.0 0.0 0.00 0.00 0.00 69 1009.1
20260504223243 -17 0 0.0 0.0 0.00 0.00 0.00 69 1009.1
20260504222243 -17 0 0.0 0.0 0.00 0.00 0.00 69 1009.1
20260504221243 -17 0 0.0 0.0 0.00 0.00 0.00 70 1009.2
20260504220243 -17 0 0.0 0.0 0.00 0.00 0.00 71 1009.4
20260504214240 -17 0 0.0 0.0 0.00 0.00 0.00 73 1009.6
20260504213240 -17 0 0.0 0.0 0.00 0.00 0.00 73 1009.5
20260504212240 -17 0 0.0 0.0 0.00 0.00 0.00 73 1009.7
20260504211240 -17 0 0.0 0.0 0.00 0.00 0.00 72 1009.7
20260504210240 -17 0 0.0 0.0 0.00 0.00 0.00 72 1009.8
20260504205237 -17 0 0.0 0.0 0.00 0.00 0.00 72 1009.8
20260504204237 -17 0 0.0 0.0 0.00 0.00 0.00 73 1009.8
20260504203237 -17 0 0.0 0.0 0.00 0.00 0.00 73 1009.9
20260504202237 -17 0 0.0 0.0 0.00 0.00 0.00 73 1009.6
20260504201237 -17 0 0.0 0.0 0.00 0.00 0.00 74 1009.7
20260504200237 -17 0 0.0 0.0 0.00 0.00 0.00 76 1009.6
20260504194234 -17 0 0.0 0.0 0.00 0.00 0.00 80 1009.9
20260504193233 -17 0 0.0 0.0 0.00 0.00 0.00 82 1009.9
20260504192233 -17 0 0.0 0.0 0.00 0.00 0.00 82 1009.9
20260504191233 -17 0 0.0 0.0 0.00 0.00 0.00 84 1009.9
20260504190233 -17 0 0.0 0.0 0.00 0.00 0.00 87 1009.9
20260504185230 -17 0 0.0 0.0 0.00 0.00 0.00 86 1009.8
20260504184230 -17 0 0.0 0.0 0.00 0.00 0.00 87 1009.7
20260504183230 -17 0 0.0 0.0 0.00 0.00 0.00 84 1009.5
20260504182230 -17 0 0.0 0.0 0.00 0.00 0.00 82 1009.5
20260504181230 -17 0 0.0 0.0 0.00 0.00 0.00 80 1009.2
20260504180231 -17 0 0.0 0.0 0.00 0.00 0.00 76 1009.1
20260504174227 -17 0 0.0 0.0 0.00 0.00 0.00 70 1008.8
20260504173227 -17 0 0.0 0.0 0.00 0.00 0.00 68 1008.8
20260504172227 -17 0 0.0 0.0 0.00 0.00 0.00 67 1008.6
20260504171227 -17 0 0.0 0.0 0.00 0.00 0.00 67 1008.6
20260504170227 -17 0 0.0 0.0 0.00 0.00 0.00 68 1008.5
20260504160224 -17 0 0.0 0.0 0.00 0.00 0.00 66 1008.7
20260504150220 -17 0 0.0 0.0 0.00 0.00 0.00 65 1008.7
20260504141217 -17 0 0.0 0.0 0.00 0.00 0.00 66 1009.3
20260504140217 -17 0 0.0 0.0 0.00 0.00 0.00 66 1009.2
20260504130214 -17 0 0.0 0.0 0.00 0.00 0.00 65 1009.4
20260504120210 -17 0 0.0 0.0 0.00 0.00 0.00 66 1009.7
20260504110207 -17 0 0.0 0.0 0.00 0.00 0.00 65 1010.2
20260504100204 -17 0 0.0 0.0 0.00 0.00 0.00 66 1010.8
20260504081157 -17 0 0.0 0.0 0.00 0.00 0.00 61 1010.5
20260504080157 -17 0 0.0 0.0 0.00 0.00 0.00 63 1010.2
20260504070154 -17 0 0.0 0.0 0.00 0.00 0.00 66 1010.9
20260504060151 -17 0 0.0 0.0 0.00 0.00 0.00 64 1010.6
20260504050148 -17 0 0.0 0.0 0.00 0.00 0.00 74 1011.8
20260504044144 -17 0 0.0 0.0 0.00 0.00 0.00 76 1011.7
20260504043144 -17 0 0.0 0.0 0.00 0.00 0.00 80 1011.8
20260504042144 -17 0 0.0 0.0 0.00 0.00 0.00 81 1011.6
20260504041144 -17 0 0.0 0.0 0.00 0.00 0.00 80 1011.7
20260504040144 -17 0 0.0 0.0 0.00 0.00 0.00 81 1011.7
20260504035141 -17 0 0.0 0.0 0.00 0.00 0.00 80 1011.7
20260504034141 -17 0 0.0 0.0 0.00 0.00 0.00 80 1011.6
20260504033141 -17 0 0.0 0.0 0.00 0.00 0.00 80 1011.6
20260504032141 -17 0 0.0 0.0 0.00 0.00 0.00 80 1011.6
20260504031141 -17 0 0.0 0.0 0.00 0.00 0.00 79 1011.6
20260504030141 -17 0 0.0 0.0 0.00 0.00 0.00 79 1011.6
20260504025138 -17 0 0.0 0.0 0.00 0.00 0.00 78 1011.6
20260504024138 -17 0 0.0 0.0 0.00 0.00 0.00 78 1011.7
20260504023138 -17 0 0.0 0.0 0.00 0.00 0.00 78 1011.8
20260504022138 -17 0 0.0 0.0 0.00 0.00 0.00 77 1011.6
20260504021138 -17 0 0.0 0.0 0.00 0.00 0.00 77 1011.7
20260504020138 -17 0 0.0 0.0 0.00 0.00 0.00 77 1011.7
20260504014135 -17 0 0.0 0.0 0.00 0.00 0.00 76 1011.8
20260504013135 -17 0 0.0 0.0 0.00 0.00 0.00 75 1011.8